Location: Glencliff
(36.1226°N, 86.7183°W)
Time: 06:32:19
(UTC+00:00)

SL-16 R/B - Pass Details

Date: 25 August 2019
Orbit: 842 x 846 km, 71.0° (Epoch: 20 September)

Event Time Altitude Azimuth Distance (km) Brightness Sun altitude
Rises 02:44:24 0° 358° (N) 3,412 5.9 -26.0°
Reaches altitude 10° 02:48:50 10° 31° (NNE) 2,472 4.7 -26.7°
Enters shadow 02:50:24 12° 47° (NE) 2,359 4.4 -26.9°
